CZ-6A DEB, 56279

Orbit data source: Space-Track

CZ-6A DEB, 56279 is space debris in SSO originally from a launch on Fri, 11 Nov 2022 UTC launched from the Taiyaun Space Center, China (TSC). Debris objects in space refer to the collection of defunct objects orbiting the Earth. Examples of debris include non-operational satellites, rocket bodies, and fragments generated from explosions, collisions, or faulty payload assembly.

Loading next visibility...
Identifier
56279, 2022-151ACX
Orbit
SSO
Country
Flag of CNCN / PRC
Related business
Manufacturer
SAST
Mission
Spacecraft
Bus & Motor
Unknown
Mass
Unknown
Launch date (UTC)
2022-11-11 (4 years ago)
Launch vehicle
Unknown
Launch site
Taiyaun Space Center, China (TSC)
Object type
Payload
Rocket body
Debris
Shape & HBR
Unknown shape, 0.1 m
Radar Cross Section
Small (<0.1 m²)

Expand to show TLE details & history
Last TLE update: 3 days ago

TLE from 3 days ago
0 CZ-6A DEB
1 56279U 22151ACX 26170.92516879  .00000405  00000-0  27027-3 0  9993
2 56279  98.9000 168.2551 0070018  13.0222 347.2733 14.05433316166744
Epoch: 2026-06-19T22:12Z
TLE epoch observation values (Epoch: 2026-06-19T22:12:14.583Z)
Latitude
-0.00006°
Longitude
-72.95281°
Altitude
828.4 km
Speed
7.464 km/s
True Right ascension
11h 13m 01s
True Declination
0° 00' 00"
Sunlit
Object was in daylight at epoch
Visualization orbit readout
Latitude
Unknown
Longitude
Unknown
Altitude
Unknown
Speed
Unknown
Apparent Right ascension
Unknown
Apparent Declination
Unknown
Sunlit
N/A
Visualization observer readout
Local Sidereal Time
21:31:06
Azimuth
Unknown
Elevation
Unknown
Doppler factor
Unknown
Orbital elements
Apogee altitude
922.994 km
Perigee altitude
821.463 km
Semi-major axis
7,250.365 km
Eccentricity
0.007
Inclination
98.9°
RAAN
168.2551°
Arg. of periapsis
13.0222°
True anomaly
347.09502°
Mean anomaly
347.2733°
Eccentric anomaly
347.18431°
Mean motion
3.51563 °/min
Orbital period
102.4 mins
BSTAR
0.00027027
Loading maneuver chart data...
Computing Atmospheric mass density...
Loading historical data...
Loading historical data...
Loading historical data...
Loading historical data...
Loading historical data...
Loading historical data...
Loading historical data...

Documentation

Showing up to 5 results
|